Simultaneous Nadir Overpasses (SNOs) Predictions

Prediction of SNOs between AQUA and METOP-A Satellite Orbit:

Table of predicted SNOs for the next 14.0 days since TLE Epoch: 2/22/2014
Index Date (AQUA) Time (AQUA) Lat,Lon (AQUA) SZA (AQUA ) Date (METOP-A) Time (METOP-A) Lat,Lon (METOP-A) SZA (METOP-A ) Distance(km) Time Diff (sec)
1 02/24/2014 07:29:29 73.57, 62.45 83.12 02/24/2014 07:28:19 73.50, 60.98 83.13 47.10 70
2 02/24/2014 08:19:01 -73.92,-130.66 96.53 02/24/2014 08:18:52 -73.94,-130.67 96.51 2.54 9
3 02/24/2014 09:08:30 73.99, 36.82 83.54 02/24/2014 09:09:31 73.98, 36.76 83.52 2.11 61
4 02/27/2014 03:03:47 73.84, 128.33 82.35 02/27/2014 03:02:34 73.82, 128.11 82.35 7.06 73
5 02/27/2014 03:53:15 -73.97, -64.32 97.53 02/27/2014 03:53:13 -73.96, -64.22 97.54 3.28 2
6 02/27/2014 04:42:43 73.99, 103.26 82.49 02/27/2014 04:43:52 73.99, 103.20 82.48 1.88 69
7 03/01/2014 22:38:00 73.90,-165.35 81.34 03/01/2014 22:36:54 73.87,-165.35 81.33 2.88 66
8 03/01/2014 23:27:26 -73.97, 2.12 98.59 03/01/2014 23:27:33 -73.97, 2.21 98.60 2.71 7
9 03/02/2014 00:16:57 74.16, 169.34 81.60 03/02/2014 00:18:08 74.20, 170.11 81.59 23.63 71
10 03/04/2014 18:12:10 73.91, -98.91 80.27 03/04/2014 18:11:13 73.92, -98.83 80.29 2.75 57
11 03/04/2014 19:01:37 -73.98, 68.56 99.67 03/04/2014 19:01:54 -73.97, 68.62 99.68 2.28 17
12 03/04/2014 19:51:15 74.53,-125.09 80.92 03/04/2014 19:52:22 74.54,-122.61 80.82 73.42 67
13 03/07/2014 13:46:20 73.93, -32.49 79.19 03/07/2014 13:45:34 73.91, -32.45 79.18 2.57 46
14 03/07/2014 14:35:46 -73.95, 135.11 100.81 03/07/2014 14:36:15 -73.96, 135.01 100.79 3.70 29




NCC Satellite Simultaneous Nadir Overpasses (SNOs) Prediction Service
